| time (UTC) | temp F | wind direction | speed MPH | gust MPH | rain 1hr in | rain 24hr in | rain mn in | humidity % | barometer mb |
| 20260505002718 | 66 | 257 | 0.0 | 0.0 | 0.00 | 0.00 | 0.00 | 32 | 995.9 |
| 20260505002219 | 66 | 257 | 0.0 | 0.0 | 0.00 | 0.00 | 0.00 | 34 | 995.9 |
| 20260505001719 | 66 | 257 | 0.0 | 0.0 | 0.00 | 0.00 | 0.00 | 34 | 996.0 |
| 20260505001219 | 66 | 257 | 0.0 | 0.0 | 0.00 | 0.00 | 0.00 | 35 | 996.0 |
| 20260505000719 | 66 | 257 | 0.0 | 0.0 | 0.00 | 0.00 | 0.00 | 34 | 996.1 |
| 20260505000219 | 66 | 257 | 0.0 | 0.0 | 0.00 | 0.00 | 0.00 | 35 | 996.0 |
| 20260504235719 | 66 | 257 | 0.0 | 0.0 | 0.00 | 0.00 | 0.00 | 35 | 996.0 |
| 20260504235219 | 65 | 257 | 0.0 | 0.0 | 0.00 | 0.00 | 0.00 | 34 | 996.0 |
| 20260504234719 | 65 | 257 | 1.0 | 2.0 | 0.00 | 0.00 | 0.00 | 34 | 996.1 |
| 20260504234219 | 65 | 257 | 1.0 | 3.0 | 0.00 | 0.00 | 0.00 | 36 | 996.0 |
| 20260504233719 | 65 | 257 | 2.0 | 4.0 | 0.00 | 0.00 | 0.00 | 35 | 996.1 |
| 20260504233219 | 65 | 259 | 3.0 | 6.0 | 0.00 | 0.00 | 0.00 | 35 | 996.1 |
| 20260504232719 | 65 | 263 | 1.0 | 6.0 | 0.00 | 0.00 | 0.00 | 36 | 996.0 |
| 20260504232219 | 65 | 276 | 1.0 | 1.0 | 0.00 | 0.00 | 0.00 | 34 | 996.2 |
| 20260504231719 | 65 | 276 | 2.0 | 4.0 | 0.00 | 0.00 | 0.00 | 33 | 996.1 |
| 20260504231219 | 65 | 276 | 4.0 | 11.0 | 0.00 | 0.00 | 0.00 | 32 | 996.2 |
| 20260504230719 | 66 | 278 | 3.0 | 9.0 | 0.00 | 0.00 | 0.00 | 32 | 996.2 |
| 20260504230219 | 66 | 277 | 3.0 | 8.0 | 0.00 | 0.00 | 0.00 | 32 | 996.2 |
| 20260504225719 | 67 | 277 | 2.0 | 11.0 | 0.00 | 0.00 | 0.00 | 31 | 996.3 |
| 20260504225219 | 68 | 278 | 2.0 | 6.0 | 0.00 | 0.00 | 0.00 | 32 | 996.3 |
| 20260504224719 | 68 | 278 | 2.0 | 4.0 | 0.00 | 0.00 | 0.00 | 31 | 996.2 |
| 20260504224219 | 69 | 278 | 2.0 | 7.0 | 0.00 | 0.00 | 0.00 | 31 | 996.2 |
| 20260504223719 | 69 | 278 | 1.0 | 4.0 | 0.00 | 0.00 | 0.00 | 33 | 996.1 |
| 20260504223219 | 68 | 278 | 1.0 | 4.0 | 0.00 | 0.00 | 0.00 | 33 | 996.1 |
| 20260504222719 | 68 | 278 | 0.0 | 3.0 | 0.00 | 0.00 | 0.00 | 34 | 996.0 |
| 20260504222219 | 67 | 278 | 1.0 | 3.0 | 0.00 | 0.00 | 0.00 | 32 | 995.9 |
| 20260504221719 | 66 | 278 | 1.0 | 2.0 | 0.00 | 0.00 | 0.00 | 35 | 995.9 |
| 20260504221219 | 66 | 278 | 1.0 | 4.0 | 0.00 | 0.00 | 0.00 | 35 | 996.0 |
| 20260504220719 | 66 | 278 | 1.0 | 4.0 | 0.00 | 0.00 | 0.00 | 36 | 996.0 |
| 20260504220219 | 66 | 278 | 1.0 | 4.0 | 0.00 | 0.00 | 0.00 | 36 | 996.1 |
| 20260504215719 | 65 | 278 | 2.0 | 3.0 | 0.00 | 0.00 | 0.00 | 40 | 996.1 |
| 20260504215219 | 65 | 278 | 2.0 | 6.0 | 0.00 | 0.00 | 0.00 | 38 | 996.3 |
| 20260504214719 | 65 | 278 | 1.0 | 4.0 | 0.00 | 0.00 | 0.00 | 41 | 996.4 |
| 20260504214219 | 65 | 278 | 1.0 | 4.0 | 0.00 | 0.00 | 0.00 | 42 | 996.4 |
| 20260504213719 | 64 | 278 | 2.0 | 5.0 | 0.00 | 0.00 | 0.00 | 41 | 996.4 |
| 20260504213219 | 63 | 278 | 2.0 | 5.0 | 0.00 | 0.00 | 0.00 | 41 | 996.5 |
| 20260504212719 | 63 | 278 | 3.0 | 8.0 | 0.00 | 0.00 | 0.00 | 41 | 996.5 |
| 20260504212219 | 62 | 278 | 3.0 | 6.0 | 0.00 | 0.00 | 0.00 | 43 | 996.5 |
| 20260504211719 | 62 | 278 | 3.0 | 11.0 | 0.00 | 0.00 | 0.00 | 42 | 996.5 |
| 20260504211219 | 62 | 279 | 4.0 | 9.0 | 0.00 | 0.00 | 0.00 | 42 | 996.6 |
| 20260504210719 | 62 | 279 | 5.0 | 9.0 | 0.00 | 0.00 | 0.00 | 41 | 996.7 |
| 20260504210219 | 63 | 284 | 4.0 | 14.0 | 0.00 | 0.00 | 0.00 | 40 | 996.9 |
| 20260504205719 | 63 | 274 | 3.0 | 12.0 | 0.00 | 0.00 | 0.00 | 39 | 996.8 |
| 20260504205219 | 63 | 278 | 3.0 | 7.0 | 0.00 | 0.00 | 0.00 | 39 | 996.8 |
| 20260504204719 | 63 | 278 | 3.0 | 6.0 | 0.00 | 0.00 | 0.00 | 38 | 996.8 |
| 20260504204219 | 63 | 278 | 4.0 | 9.0 | 0.00 | 0.00 | 0.00 | 37 | 996.7 |
| 20260504203719 | 64 | 278 | 3.0 | 8.0 | 0.00 | 0.00 | 0.00 | 36 | 996.7 |
| 20260504203219 | 64 | 279 | 3.0 | 8.0 | 0.00 | 0.00 | 0.00 | 36 | 996.7 |
| 20260504202719 | 64 | 279 | 2.0 | 7.0 | 0.00 | 0.00 | 0.00 | 36 | 996.8 |
| 20260504202219 | 64 | 280 | 2.0 | 7.0 | 0.00 | 0.00 | 0.00 | 35 | 996.9 |
| 20260504201719 | 64 | 280 | 3.0 | 9.0 | 0.00 | 0.00 | 0.00 | 35 | 996.7 |
| 20260504201219 | 65 | 281 | 2.0 | 7.0 | 0.00 | 0.00 | 0.00 | 35 | 996.7 |
| 20260504200719 | 65 | 283 | 2.0 | 6.0 | 0.00 | 0.00 | 0.00 | 35 | 996.7 |
| 20260504200219 | 66 | 281 | 2.0 | 8.0 | 0.00 | 0.00 | 0.00 | 36 | 996.7 |
| 20260504195719 | 67 | 298 | 2.0 | 6.0 | 0.00 | 0.00 | 0.00 | 35 | 996.7 |
| 20260504195219 | 67 | 355 | 1.0 | 6.0 | 0.00 | 0.00 | 0.00 | 33 | 996.7 |
| 20260504194719 | 68 | 225 | 0.0 | 6.0 | 0.00 | 0.00 | 0.00 | 32 | 996.8 |
| 20260504194219 | 68 | 157 | 0.0 | 0.0 | 0.00 | 0.00 | 0.00 | 32 | 996.8 |
| 20260504193719 | 68 | 156 | 0.0 | 0.0 | 0.00 | 0.00 | 0.00 | 31 | 996.7 |
| 20260504193219 | 68 | 156 | 0.0 | 0.0 | 0.00 | 0.00 | 0.00 | 32 | 996.8 |
| 20260504192719 | 69 | 156 | 0.0 | 1.0 | 0.00 | 0.00 | 0.00 | 30 | 997.0 |
| 20260504192219 | 69 | 156 | 0.0 | 4.0 | 0.00 | 0.00 | 0.00 | 31 | 996.9 |
| 20260504191719 | 69 | 156 | 0.0 | 3.0 | 0.00 | 0.00 | 0.00 | 32 | 996.9 |
| 20260504191219 | 69 | 156 | 1.0 | 3.0 | 0.00 | 0.00 | 0.00 | 32 | 996.9 |
| 20260504190719 | 69 | 156 | 1.0 | 2.0 | 0.00 | 0.00 | 0.00 | 33 | 996.9 |
| 20260504190219 | 69 | 157 | 1.0 | 6.0 | 0.00 | 0.00 | 0.00 | 32 | 997.1 |
| 20260504185719 | 69 | 156 | 1.0 | 6.0 | 0.00 | 0.00 | 0.00 | 31 | 997.2 |
| 20260504185219 | 69 | 184 | 1.0 | 3.0 | 0.00 | 0.00 | 0.00 | 32 | 997.1 |
| 20260504184719 | 69 | 186 | 1.0 | 4.0 | 0.00 | 0.00 | 0.00 | 31 | 997.1 |
| 20260504184219 | 70 | 184 | 2.0 | 2.0 | 0.00 | 0.00 | 0.00 | 32 | 997.2 |
| 20260504183719 | 70 | 184 | 3.0 | 6.0 | 0.00 | 0.00 | 0.00 | 31 | 997.2 |
| 20260504183219 | 71 | 165 | 3.0 | 6.0 | 0.00 | 0.00 | 0.00 | 32 | 997.1 |
| 20260504182719 | 71 | 172 | 2.0 | 5.0 | 0.00 | 0.00 | 0.00 | 32 | 997.1 |
| 20260504182219 | 71 | 180 | 1.0 | 8.0 | 0.00 | 0.00 | 0.00 | 31 | 997.2 |
| 20260504181719 | 71 | 204 | 0.0 | 0.0 | 0.00 | 0.00 | 0.00 | 33 | 997.4 |
| 20260504181219 | 71 | 204 | 1.0 | 5.0 | 0.00 | 0.00 | 0.00 | 31 | 997.5 |
| 20260504180719 | 70 | 207 | 1.0 | 3.0 | 0.00 | 0.00 | 0.00 | 32 | 997.5 |
| 20260504180219 | 70 | 190 | 1.0 | 3.0 | 0.00 | 0.00 | 0.00 | 31 | 997.5 |
| 20260504175719 | 70 | 184 | 2.0 | 5.0 | 0.00 | 0.00 | 0.00 | 33 | 997.5 |
| 20260504175219 | 70 | 202 | 2.0 | 6.0 | 0.00 | 0.00 | 0.00 | 33 | 997.6 |
| 20260504174719 | 70 | 212 | 2.0 | 3.0 | 0.00 | 0.00 | 0.00 | 33 | 997.6 |
| 20260504174219 | 70 | 215 | 3.0 | 6.0 | 0.00 | 0.00 | 0.00 | 33 | 997.7 |
| 20260504173719 | 69 | 212 | 3.0 | 6.0 | 0.00 | 0.00 | 0.00 | 34 | 997.7 |
| 20260504173219 | 69 | 175 | 2.0 | 6.0 | 0.00 | 0.00 | 0.00 | 36 | 997.8 |
| 20260504172719 | 69 | 185 | 2.0 | 5.0 | 0.00 | 0.00 | 0.00 | 35 | 997.9 |
| 20260504172219 | 69 | 186 | 2.0 | 5.0 | 0.00 | 0.00 | 0.00 | 35 | 998.0 |
| 20260504171719 | 68 | 188 | 2.0 | 4.0 | 0.00 | 0.00 | 0.00 | 35 | 998.1 |
| 20260504171219 | 68 | 187 | 3.0 | 6.0 | 0.00 | 0.00 | 0.00 | 36 | 998.0 |
| 20260504170719 | 68 | 191 | 2.0 | 6.0 | 0.00 | 0.00 | 0.00 | 36 | 998.0 |
| 20260504170219 | 68 | 198 | 2.0 | 5.0 | 0.00 | 0.00 | 0.00 | 37 | 998.1 |
| 20260504160219 | 63 | 213 | 3.0 | 7.0 | 0.00 | 0.00 | 0.00 | 40 | 998.2 |
| 20260504150719 | 63 | 249 | 3.0 | 7.0 | 0.00 | 0.00 | 0.00 | 40 | 998.5 |
| 20260504150219 | 62 | 205 | 3.0 | 6.0 | 0.00 | 0.00 | 0.00 | 41 | 998.6 |
| 20260504141220 | 60 | 222 | 3.0 | 6.0 | 0.00 | 0.00 | 0.00 | 43 | 998.7 |
| 20260504140720 | 59 | 219 | 2.0 | 5.0 | 0.00 | 0.00 | 0.00 | 44 | 998.7 |
| 20260504140220 | 59 | 219 | 1.0 | 5.0 | 0.00 | 0.00 | 0.00 | 45 | 998.7 |
| 20260504130720 | 55 | 224 | 2.0 | 3.0 | 0.00 | 0.00 | 0.00 | 50 | 999.0 |
| 20260504130220 | 55 | 224 | 1.0 | 5.0 | 0.00 | 0.00 | 0.00 | 49 | 999.1 |
| 20260504120220 | 56 | 223 | 2.0 | 5.0 | 0.00 | 0.00 | 0.00 | 46 | 999.1 |
| 20260504110720 | 59 | 196 | 3.0 | 10.0 | 0.00 | 0.00 | 0.00 | 41 | 998.7 |
| 20260504110220 | 59 | 217 | 3.0 | 10.0 | 0.00 | 0.00 | 0.00 | 41 | 998.6 |
| 20260504100220 | 59 | 223 | 3.0 | 8.0 | 0.00 | 0.00 | 0.00 | 39 | 999.0 |
| 20260504081720 | 62 | 267 | 2.0 | 6.0 | 0.00 | 0.00 | 0.00 | 26 | 998.6 |
| 20260504081220 | 62 | 265 | 2.0 | 7.0 | 0.00 | 0.00 | 0.00 | 26 | 998.6 |
| 20260504080720 | 61 | 266 | 1.0 | 7.0 | 0.00 | 0.00 | 0.00 | 27 | 998.9 |
| 20260504080220 | 61 | 220 | 2.0 | 5.0 | 0.00 | 0.00 | 0.00 | 27 | 998.9 |
| 20260504070220 | 59 | 5 | 0.0 | 0.0 | 0.00 | 0.00 | 0.00 | 28 | 998.7 |
| 20260504060220 | 60 | 5 | 0.0 | 1.0 | 0.00 | 0.00 | 0.00 | 28 | 999.1 |
| 20260504050720 | 60 | 5 | 0.0 | 0.0 | 0.00 | 0.00 | 0.00 | 27 | 999.5 |
| 20260504050220 | 60 | 5 | 0.0 | 0.0 | 0.00 | 0.00 | 0.00 | 27 | 999.5 |
| 20260504045720 | 60 | 5 | 0.0 | 0.0 | 0.00 | 0.00 | 0.00 | 27 | 999.5 |
| 20260504045220 | 60 | 5 | 0.0 | 0.0 | 0.00 | 0.00 | 0.00 | 28 | 999.6 |
| 20260504044720 | 60 | 5 | 0.0 | 0.0 | 0.00 | 0.00 | 0.00 | 28 | 999.6 |
| 20260504044220 | 60 | 5 | 0.0 | 0.0 | 0.00 | 0.00 | 0.00 | 28 | 999.7 |
| 20260504043720 | 61 | 5 | 0.0 | 0.0 | 0.00 | 0.00 | 0.00 | 27 | 999.6 |
| 20260504043220 | 61 | 5 | 0.0 | 0.0 | 0.00 | 0.00 | 0.00 | 27 | 999.7 |
| 20260504042720 | 61 | 5 | 0.0 | 0.0 | 0.00 | 0.00 | 0.00 | 28 | 999.7 |
| 20260504042220 | 61 | 5 | 0.0 | 0.0 | 0.00 | 0.00 | 0.00 | 27 | 999.8 |
| 20260504041720 | 61 | 5 | 0.0 | 0.0 | 0.00 | 0.00 | 0.00 | 27 | 999.8 |
| 20260504041220 | 61 | 5 | 0.0 | 0.0 | 0.00 | 0.00 | 0.00 | 27 | 999.7 |
| 20260504040721 | 61 | 5 | 0.0 | 0.0 | 0.00 | 0.00 | 0.00 | 28 | 999.7 |
| 20260504040221 | 62 | 5 | 0.0 | 0.0 | 0.00 | 0.00 | 0.00 | 26 | 999.7 |
| 20260504035721 | 62 | 5 | 0.0 | 0.0 | 0.00 | 0.00 | 0.00 | 27 | 999.8 |
| 20260504035221 | 62 | 5 | 0.0 | 0.0 | 0.00 | 0.00 | 0.00 | 26 | 999.8 |
| 20260504034721 | 62 | 5 | 0.0 | 0.0 | 0.00 | 0.00 | 0.00 | 26 | 999.7 |
| 20260504034221 | 62 | 5 | 0.0 | 0.0 | 0.00 | 0.00 | 0.00 | 26 | 999.7 |
| 20260504033721 | 62 | 5 | 0.0 | 0.0 | 0.00 | 0.00 | 0.00 | 26 | 999.7 |
| 20260504033221 | 63 | 5 | 0.0 | 0.0 | 0.00 | 0.00 | 0.00 | 26 | 999.7 |
| 20260504032721 | 63 | 5 | 0.0 | 0.0 | 0.00 | 0.00 | 0.00 | 26 | 999.7 |
| 20260504032221 | 63 | 5 | 0.0 | 0.0 | 0.00 | 0.00 | 0.00 | 25 | 999.6 |
| 20260504031721 | 63 | 5 | 0.0 | 0.0 | 0.00 | 0.00 | 0.00 | 24 | 999.6 |
| 20260504031221 | 64 | 5 | 0.0 | 0.0 | 0.00 | 0.00 | 0.00 | 24 | 999.7 |
| 20260504030721 | 64 | 5 | 0.0 | 0.0 | 0.00 | 0.00 | 0.00 | 24 | 999.7 |
| 20260504030221 | 64 | 5 | 0.0 | 0.0 | 0.00 | 0.00 | 0.00 | 24 | 999.8 |
| 20260504025721 | 64 | 5 | 0.0 | 0.0 | 0.00 | 0.00 | 0.00 | 25 | 999.7 |
| 20260504025221 | 65 | 5 | 0.0 | 1.0 | 0.00 | 0.00 | 0.00 | 24 | 999.7 |
| 20260504024721 | 65 | 5 | 0.0 | 2.0 | 0.00 | 0.00 | 0.00 | 22 | 999.7 |
| 20260504024221 | 65 | 5 | 0.0 | 2.0 | 0.00 | 0.00 | 0.00 | 23 | 999.7 |
| 20260504023721 | 65 | 5 | 0.0 | 0.0 | 0.00 | 0.00 | 0.00 | 23 | 999.7 |
| 20260504023221 | 65 | 5 | 0.0 | 0.0 | 0.00 | 0.00 | 0.00 | 23 | 999.6 |
| 20260504022721 | 65 | 5 | 0.0 | 0.0 | 0.00 | 0.00 | 0.00 | 24 | 999.5 |
| 20260504022221 | 66 | 5 | 0.0 | 0.0 | 0.00 | 0.00 | 0.00 | 23 | 999.5 |
| 20260504021721 | 66 | 5 | 0.0 | 0.0 | 0.00 | 0.00 | 0.00 | 23 | 999.6 |
| 20260504021221 | 66 | 5 | 0.0 | 0.0 | 0.00 | 0.00 | 0.00 | 23 | 999.6 |
| 20260504020721 | 67 | 5 | 0.0 | 0.0 | 0.00 | 0.00 | 0.00 | 23 | 999.6 |
| 20260504020221 | 67 | 5 | 0.0 | 0.0 | 0.00 | 0.00 | 0.00 | 23 | 999.5 |
| 20260504015721 | 67 | 5 | 0.0 | 0.0 | 0.00 | 0.00 | 0.00 | 23 | 999.5 |
| 20260504015221 | 67 | 5 | 0.0 | 0.0 | 0.00 | 0.00 | 0.00 | 23 | 999.6 |
| 20260504014721 | 68 | 5 | 0.0 | 0.0 | 0.00 | 0.00 | 0.00 | 21 | 999.7 |
| 20260504014221 | 68 | 5 | 0.0 | 0.0 | 0.00 | 0.00 | 0.00 | 20 | 999.6 |
| 20260504013721 | 68 | 5 | 0.0 | 0.0 | 0.00 | 0.00 | 0.00 | 20 | 999.7 |
| 20260504013221 | 69 | 5 | 0.0 | 0.0 | 0.00 | 0.00 | 0.00 | 21 | 999.7 |
| 20260504012721 | 69 | 5 | 0.0 | 0.0 | 0.00 | 0.00 | 0.00 | 21 | 999.7 |
| 20260504012221 | 69 | 5 | 0.0 | 0.0 | 0.00 | 0.00 | 0.00 | 20 | 999.7 |
| 20260504011721 | 69 | 5 | 0.0 | 0.0 | 0.00 | 0.00 | 0.00 | 20 | 999.7 |
| 20260504011221 | 70 | 5 | 0.0 | 0.0 | 0.00 | 0.00 | 0.00 | 20 | 999.7 |
| 20260504010721 | 70 | 5 | 0.0 | 0.0 | 0.00 | 0.00 | 0.00 | 20 | 999.7 |
| 20260504010221 | 70 | 5 | 0.0 | 1.0 | 0.00 | 0.00 | 0.00 | 18 | 999.9 |
| 20260504005721 | 70 | 5 | 0.0 | 0.0 | 0.00 | 0.00 | 0.00 | 19 | 999.9 |
| 20260504005221 | 70 | 5 | 0.0 | 2.0 | 0.00 | 0.00 | 0.00 | 19 | 1000.1 |
| 20260504004721 | 71 | 5 | 0.0 | 3.0 | 0.00 | 0.00 | 0.00 | 18 | 1000.1 |
| 20260504004221 | 71 | 5 | 0.0 | 4.0 | 0.00 | 0.00 | 0.00 | 20 | 1000.2 |
| 20260504003721 | 71 | 5 | 0.0 | 4.0 | 0.00 | 0.00 | 0.00 | 19 | 1000.2 |
| 20260504003221 | 71 | 5 | 0.0 | 1.0 | 0.00 | 0.00 | 0.00 | 20 | 1000.2 |